Location: Newark
(25.6108°S, 54.5803°W)
Time: 04:50:29
(UTC+00:00)

deb Explorer IX - Pass Details

Date: 29 October 2020
Orbit: 538 x 1104 km, 38.8° (Epoch: 29 November)

Event Time Altitude Azimuth Distance (km) Brightness Sun altitude
Rises 02:38:44 0° 240° (WSW) 2,729 - -49.4°
Reaches altitude 10° 02:41:00 10° 241° (WSW) 1,810 - -49.6°
Maximum altitude 02:45:04 78° 327° (NNW) 556 - -49.8°
Drops below altitude 10° 02:49:13 10° 53° (NE) 1,836 - -50.0°
Sets 02:51:32 0° 54° (NE) 2,773 - -50.1°
